This demonstration page uses our WeatherBlox Daily Observations layout. Learn more.

Left ArrowRight Arrow

39.92423, -83.80882

Hourly Observations for February 5, 2019

Temp ( °F °C ) Dew Point ( °F °C ) Humidity (%) Winds ( mph kmh ) Pressure ( in mb ) Visibility ( mi km ) Precip ( " mm )
12:03 am 00:03 Cloudy with Light Rain 52 11 52 11 100 100 SSW 8 13 29.90 1012 0 0 0.00 0.03
12:28 am 00:28 Cloudy with Light Rain 52 11 52 11 100 100 SSW 7 11 29.91 1013 1 1 0.01 0.25
12:56 am 00:56 Cloudy with Fog 52 11.1 52 11.1 100 100 SW 9 15 29.91 1013 1 1 0.01 0.25
1:05 am 01:05 Cloudy with Light Rain 52 11 52 11 100 100 SW 8 13 29.91 1013 1 1 0.00 0.03
1:18 am 01:18 Cloudy with Light Rain 52 11 52 11 100 100 SW 8 13 29.92 1013 1 1 0.00 0.03
1:56 am 01:56 Cloudy with Fog 52 11.1 52 11.1 100 100 WSW 9 15 29.91 1013 1 1 0.00 0.03
2:04 am 02:04 Cloudy with Mist and Fog 52 11 52 11 100 100 WSW 8 13 29.92 1013 1 1 0.00 0.00
2:32 am 02:32 Cloudy with Light Rain 52 11 52 11 100 100 W 8 13 29.93 1013 1 1 0.00 0.03
2:49 am 02:49 Cloudy with Fog 52 11 52 11 100 100 W 7 11 29.94 1014 0 0 0.00 0.03
2:56 am 02:56 Cloudy with Fog 51 10.6 51 10.6 100 100 W 6 9 29.94 1014 0 0 0.00 0.03
3:51 am 03:51 Cloudy with Mist and Fog 52 11 52 11 100 100 WNW 10 17 29.96 1014 1 1 0.01 0.25
3:56 am 03:56 Cloudy with Mist and Fog 51 10.6 51 10.6 100 100 NW 8 13 29.96 1015 1 1 0.01 0.25
4:03 am 04:03 Cloudy with Fog 50 10 50 10 100 100 NW 9 15 29.96 1015 1 1 0.00 0.00
4:16 am 04:16 Cloudy with Light Rain 48 9 48 9 100 100 NW 13 20 29.98 1015 1 2 0.00 0.03
4:19 am 04:19 Cloudy with Light Rain 48 9 48 9 100 100 NW 10 17 29.98 1015 2 3 0.00 0.03
4:24 am 04:24 Cloudy with Mist and Fog 48 9 48 9 100 100 NW 12 19 29.98 1015 1 2 0.00 0.03
4:29 am 04:29 Cloudy with Light Rain 48 9 48 9 100 100 NNW 10 17 29.99 1015 1 1 0.00 0.03
4:36 am 04:36 Cloudy with Light Rain 46 8 46 8 100 100 NNW 12 19 29.99 1016 1 2 0.00 0.03
4:44 am 04:44 Cloudy with Mist and Fog 46 8 46 8 100 100 NW 9 15 30.00 1016 1 2 0.00 0.03
4:56 am 04:56 Cloudy with Light Rain 46 7.8 46 7.8 100 100 NW 10 17 30.00 1016 2 3 0.00 0.03
5:04 am 05:04 Cloudy with Light Rain 46 8 46 8 100 100 NW 9 15 30.01 1016 2 3 0.00 0.03
5:39 am 05:39 Cloudy with Mist and Fog 45 7 45 7 100 100 NW 6 9 30.01 1016 1 2 0.00 0.03
5:46 am 05:46 Cloudy with Mist and Fog 45 7 45 7 100 100 NNW 7 11 30.02 1017 1 2 0.00 0.03
5:56 am 05:56 Cloudy with Mist and Fog 44 6.7 44 6.7 100 100 NW 7 11 30.01 1016 1 2 0.00 0.03
6:07 am 06:07 Cloudy with Mist and Fog 45 7 45 7 100 100 NNW 8 13 30.02 1017 3 4 0.00 0.00
6:27 am 06:27 Cloudy with Mist and Fog 43 6 43 6 100 100 NNW 7 11 30.04 1017 1 2 0.00 0.00
6:30 am 06:30 Cloudy with Fog 43 6 43 6 100 100 N 7 11 30.04 1017 1 1 0.00 0.00
6:40 am 06:40 Cloudy with Mist and Fog 43 6 43 6 100 100 NNW 7 11 30.05 1018 1 2 0.00 0.00
6:48 am 06:48 Cloudy with Mist and Fog 43 6 43 6 100 100 NW 5 7 30.05 1018 2 3 0.00 0.00
6:56 am 06:56 Cloudy with Mist and Fog 42 5.6 42 5.6 100 100 WNW 5 7 30.04 1017 2 3 0.00 0.00
7:16 am 07:16 Cloudy with Mist and Fog 43 6 43 6 100 100 NNW 6 9 30.06 1018 3 5 0.00 0.00
7:34 am 07:34 Cloudy with Mist and Fog 41 5 41 5 100 100 NNW 6 9 30.07 1018 3 4 0.00 0.00
7:45 am 07:45 Cloudy with Mist and Fog 41 5 41 5 100 100 WNW 6 9 30.07 1018 1 2 0.01 0.25
7:48 am 07:48 Cloudy with Mist and Fog 41 5 41 5 100 100 NW 6 9 30.08 1019 1 2 0.01 0.25
7:56 am 07:56 Cloudy with Mist and Fog 41 5 41 5 100 100 NW 6 9 30.07 1018 1 2 0.01 0.25
8:03 am 08:03 Cloudy with Mist and Fog 41 5 41 5 100 100 NW 6 9 30.08 1019 1 1 0.00 0.00
8:15 am 08:15 Cloudy with Mist and Fog 39 4 39 4 100 100 NW 7 11 30.10 1019 1 2 0.00 0.00
8:28 am 08:28 Cloudy with Mist and Fog 39 4 39 4 100 100 NW 6 9 30.10 1019 1 1 0.00 0.00
8:34 am 08:34 Cloudy with Fog 39 4 39 4 100 100 WNW 7 11 30.11 1020 0 0 0.00 0.00
8:56 am 08:56 Cloudy with Fog 40 4.4 40 4.4 100 100 NW 7 11 30.09 1019 0 0 0.00 0.00
9:22 am 09:22 Cloudy with Mist and Fog 39 4 39 4 100 100 NW 6 9 30.12 1020 1 2 0.00 0.00
9:32 am 09:32 Cloudy with Mist and Fog 39 4 39 4 100 100 NNW 6 9 30.12 1020 2 2 0.00 0.00
9:56 am 09:56 Cloudy with Mist and Fog 39 3.9 39 3.9 100 100 N 8 13 30.11 1020 2 3 0.00 0.00
10:36 am 10:36 Cloudy with Mist and Fog 39 4 39 4 100 100 NW 7 11 30.13 1020 1 1 0.00 0.00
10:46 am 10:46 Cloudy with Fog 39 4 39 4 100 100 NW 7 11 30.14 1021 1 1 0.00 0.00
10:56 am 10:56 Cloudy with Mist and Fog 39 3.9 39 3.9 100 100 NW 8 13 30.12 1020 1 1 0.00 0.00
11:06 am 11:06 Cloudy with Mist and Fog 39 4 39 4 100 100 NNW 6 9 30.15 1021 1 2 0.00 0.00
11:21 am 11:21 Cloudy with Mist and Fog 39 4 39 4 100 100 NNW 7 11 30.16 1021 1 2 0.00 0.00
11:29 am 11:29 Cloudy with Mist and Fog 39 4 39 4 100 100 NNW 7 11 30.16 1021 2 2 0.00 0.00
11:35 am 11:35 Cloudy with Mist and Fog 39 4 39 4 100 100 NNW 6 9 30.15 1021 1 1 0.00 0.00
11:46 am 11:46 Cloudy with Fog 39 4 39 4 100 100 N 7 11 30.16 1021 1 1 0.00 0.00
11:56 am 11:56 Cloudy with Mist and Fog 39 3.9 39 3.9 100 100 NNW 7 11 30.14 1021 1 1 0.00 0.00
12:56 pm 12:56 Cloudy with Mist and Fog 40 4.4 40 4.4 100 100 N 5 7 30.12 1020 1 1 0.00 0.03
1:03 pm 13:03 Cloudy with Mist and Fog 39 4 39 4 100 100 N 6 9 30.14 1021 1 2 0.00 0.00
1:48 pm 13:48 Cloudy with Light Rain 39 4 39 4 100 100 NNE 3 6 30.13 1020 1 2 0.00 0.03
1:56 pm 13:56 Cloudy with Mist and Fog 40 4.4 40 4.4 100 100 N 7 11 30.11 1020 1 2 0.00 0.03
2:10 pm 14:10 Cloudy with Mist and Fog 39 4 39 4 100 100 N 7 11 30.13 1020 1 1 0.00 0.00
2:56 pm 14:56 Cloudy with Light Rain 39 3.9 39 3.9 100 100 NNE 6 9 30.10 1019 1 2 0.00 0.03
3:33 pm 15:33 Cloudy with Mist and Fog 39 4 39 4 100 100 ENE 7 11 30.12 1020 1 2 0.00 0.03
3:47 pm 15:47 Cloudy with Mist and Fog 39 4 39 4 100 100 NE 5 7 30.12 1020 1 2 0.00 0.03
3:56 pm 15:56 Cloudy with Mist and Fog 39 3.9 39 3.9 100 100 ENE 6 9 30.11 1020 1 2 0.00 0.03
4:09 pm 16:09 Cloudy with Mist and Fog 39 4 39 4 100 100 NE 6 9 30.13 1020 1 2 0.00 0.00
4:51 pm 16:51 Cloudy with Light Rain 39 4 39 4 100 100 ENE 9 15 30.13 1020 2 2 0.00 0.03
4:56 pm 16:56 Cloudy with Light Rain 39 3.9 39 3.9 100 100 E 9 15 30.11 1020 2 3 0.00 0.03
5:03 pm 17:03 Cloudy with Mist and Fog 37 3 37 3 100 100 ENE 9 15 30.13 1020 2 3 0.00 0.03
5:12 pm 17:12 Cloudy with Mist and Fog 37 3 37 3 100 100 E 9 15 30.13 1020 2 3 0.00 0.03
5:35 pm 17:35 Cloudy with Mist and Fog 37 3 37 3 100 100 ENE 12 19 30.12 1020 3 5 0.00 0.03
5:44 pm 17:44 Cloudy with Mist and Fog 37 3 37 3 100 100 ENE 8 13 30.13 1020 2 3 0.00 0.03
5:54 pm 17:54 Cloudy with Mist and Fog 37 3 37 3 100 100 E 8 13 30.13 1020 2 2 0.00 0.03
5:56 pm 17:56 Cloudy with Mist and Fog 38 3.3 38 3.3 100 100 E 9 15 30.11 1020 2 2 0.00 0.03
6:21 pm 18:21 Cloudy with Mist and Fog 37 3 37 3 100 100 E 9 15 30.13 1020 3 5 0.00 0.00
6:39 pm 18:39 Cloudy with Light Rain 37 3 37 3 100 100 ENE 9 15 30.13 1020 2 3 0.00 0.03
6:56 pm 18:56 Cloudy with Light Rain 37 2.8 37 2.8 100 100 ENE 9 15 30.12 1020 3 4 0.00 0.03
7:17 pm 19:17 Cloudy with Mist and Fog 36 2 36 2 100 100 ENE 7 11 30.15 1021 3 5 0.00 0.03
7:54 pm 19:54 Cloudy with Mist and Fog 36 2 36 2 100 100 ENE 8 13 30.14 1020 3 4 0.00 0.03
7:56 pm 19:56 Cloudy with Mist and Fog 36 2.2 36 2.2 100 100 ENE 9 15 30.11 1020 3 4 0.00 0.03
8:56 pm 20:56 Cloudy with Mist and Fog 36 2.2 36 2.2 100 100 E 8 13 30.09 1019 2 3 0.00 0.00
9:56 pm 21:56 Cloudy with Mist and Fog 37 2.8 37 2.8 100 100 E 12 19 30.08 1019 2 3 0.00 0.00
10:06 pm 22:06 Cloudy with Mist and Fog 37 3 37 3 100 100 E 12 19 30.09 1019 2 3 0.00 0.00
10:19 pm 22:19 Cloudy with Mist and Fog 37 3 37 3 100 100 E 10 17 30.09 1019 2 2 0.00 0.00
10:54 pm 22:54 Cloudy with Mist and Fog 39 4 39 4 100 100 ESE 12 19 30.08 1018 2 3 0.00 0.00
10:56 pm 22:56 Cloudy with Mist and Fog 39 3.9 39 3.9 100 100 ESE 10 17 30.06 1018 2 3 0.00 0.00
11:13 pm 23:13 Cloudy with Mist and Fog 39 4 39 4 100 100 E 10 17 30.07 1018 3 5 0.00 0.00
11:56 pm 23:56 Cloudy with Mist and Fog 39 3.9 39 3.9 100 100 ESE 10 17 30.05 1018 3 4 0.00 0.00

Powered by AerisWeather